,MP1 1.0m,MP1 1.0m,MP1 1.0m,MP1 0.5m,MP1 0.5m,MP1 0.5m
,Volume Moisture Content,Potential kPa,Suction kPa,Volume Moisture Content,Potential kPa,Suction kPa
,Volume Moisture Content at 1.0m Depth (m3/m3),Pore Pressure at 1.0m Depth,Suction at 1.0m Depth,Volume Moisture Content at 0.5m Depth (m3/m3),Pore Pressure at 0.5m Depth,Suction at 0.5m Depth
Date,1m_VWC_Perc,1m_PWP_kPa,1m_Suction_kPa,0p5m_VWC_Perc,0p5m_PWP_kPa,0p5m_Suction_kPa
27/11/2008,0.332,-71,71,0.341,-116,116
28/11/2008,0.332,-23,23,0.347,-29,29
29/11/2008,0.332,-16,16,0.348,-19,19
30/11/2008,0.332,-14,14,0.349,-16,16
01/12/2008,0.332,-13,13,0.35,-15,15
02/12/2008,0.332,-13,13,0.351,-14,14
03/12/2008,0.332,-13,13,0.351,-14,14
04/12/2008,0.332,-13,13,0.351,-14,14
05/12/2008,0.332,-13,13,0.352,-13,13
06/12/2008,0.332,-13,13,0.355,-13,13
07/12/2008,0.332,-12,12,0.356,-12,12
08/12/2008,0.332,-12,12,0.356,-12,12
09/12/2008,0.332,-12,12,0.356,-12,12
10/12/2008,0.333,-12,12,0.356,-12,12
11/12/2008,0.333,-12,12,0.356,-12,12
12/12/2008,0.333,-12,12,0.356,-12,12
13/12/2008,0.332,-12,12,0.355,-12,12
14/12/2008,0.332,-12,12,0.356,-12,12
15/12/2008,0.333,-12,12,0.357,-12,12
16/12/2008,0.333,-12,12,0.357,-12,12
17/12/2008,0.333,-12,12,0.357,-12,12
18/12/2008,0.333,-12,12,0.358,-12,12
19/12/2008,0.333,-12,12,0.358,-12,12
20/12/2008,0.334,-11,11,0.358,-12,12
21/12/2008,0.335,-11,11,0.359,-12,12
22/12/2008,0.335,-11,11,0.36,-12,12
23/12/2008,0.336,-11,11,0.36,-11,11
24/12/2008,0.336,-11,11,0.36,-11,11
25/12/2008,0.336,-11,11,0.36,-11,11
26/12/2008,0.336,-11,11,0.36,-11,11
27/12/2008,0.336,-11,11,0.36,-11,11
28/12/2008,0.336,-11,11,0.36,-11,11
29/12/2008,0.336,-11,11,0.36,-11,11
30/12/2008,0.336,-11,11,0.36,-11,11
31/12/2008,0.336,-11,11,0.359,-11,11
01/01/2009,0.336,-11,11,0.359,-11,11
02/01/2009,0.335,-11,11,0.36,-11,11
03/01/2009,0.335,-11,11,0.36,-11,11
04/01/2009,0.335,-11,11,0.359,-11,11
05/01/2009,0.335,-11,11,0.359,-11,11
06/01/2009,0.335,-11,11,0.36,-11,11
07/01/2009,0.334,-11,11,0.36,-11,11
08/01/2009,0.334,-11,11,0.36,-11,11
09/01/2009,0.335,-11,11,0.36,-11,11
10/01/2009,0.335,-11,11,0.36,-11,11
11/01/2009,0.335,-11,11,0.359,-11,11
12/01/2009,0.335,-11,11,0.359,-11,11
13/01/2009,0.335,-11,11,0.36,-11,11
14/01/2009,0.335,-11,11,0.36,-11,11
15/01/2009,0.335,-11,11,0.36,-11,11
16/01/2009,0.335,-11,11,0.36,-11,11
17/01/2009,0.335,-11,11,0.359,-11,11
18/01/2009,0.336,-11,11,0.359,-12,12
19/01/2009,0.335,-11,11,0.359,-12,12
20/01/2009,0.335,-11,11,0.358,-12,12
21/01/2009,0.335,-11,11,0.359,-12,12
22/01/2009,0.335,-11,11,0.359,-12,12
23/01/2009,0.335,-11,11,0.358,-12,12
24/01/2009,0.335,-11,11,0.359,-12,12
25/01/2009,0.335,-11,11,0.359,-12,12
26/01/2009,0.335,-11,11,0.36,-12,12
27/01/2009,0.335,-11,11,0.361,-11,11
28/01/2009,0.335,-11,11,0.361,-11,11
29/01/2009,0.335,-11,11,0.361,-11,11
30/01/2009,0.336,-11,11,0.361,-11,11
31/01/2009,0.336,-11,11,0.361,-11,11
01/02/2009,0.336,-11,11,0.361,-11,11
02/02/2009,0.336,-11,11,0.361,-11,11
03/02/2009,0.335,-11,11,0.361,-11,11
04/02/2009,0.335,-11,11,0.361,-11,11
05/02/2009,0.335,-11,11,0.36,-11,11
06/02/2009,0.335,-11,11,0.36,-11,11
07/02/2009,0.335,-11,11,0.361,-11,11
08/02/2009,0.335,-11,11,0.361,-11,11
09/02/2009,0.335,-11,11,0.361,-11,11
10/02/2009,0.335,-11,11,0.361,-11,11
11/02/2009,0.335,-11,11,0.362,-11,11
12/02/2009,0.335,-11,11,0.362,-10,10
13/02/2009,0.336,-10,10,0.363,-10,10
14/02/2009,0.336,-10,10,0.363,-10,10
15/02/2009,0.337,-10,10,0.363,-10,10
16/02/2009,0.337,-10,10,0.363,-10,10
17/02/2009,0.337,-10,10,0.363,-10,10
18/02/2009,0.337,-10,10,0.364,-10,10
19/02/2009,0.338,-10,10,0.364,-10,10
20/02/2009,0.338,-10,10,0.364,-10,10
21/02/2009,0.338,-10,10,0.364,-10,10
22/02/2009,0.339,-10,10,0.363,-10,10
23/02/2009,0.339,-10,10,0.363,-10,10
24/02/2009,0.339,-10,10,0.363,-10,10
25/02/2009,0.339,-10,10,0.363,-10,10
26/02/2009,0.339,-10,10,0.362,-10,10
27/02/2009,0.339,-10,10,0.362,-10,10
28/02/2009,0.339,-10,10,0.362,-10,10
01/03/2009,0.339,-10,10,0.361,-11,11
02/03/2009,0.339,-10,10,0.361,-11,11
03/03/2009,0.339,-10,10,0.361,-11,11
04/03/2009,0.339,-10,10,0.36,-11,11
05/03/2009,0.339,-10,10,0.361,-11,11
06/03/2009,0.339,-10,10,0.361,-11,11
07/03/2009,0.339,-10,10,0.361,-11,11
08/03/2009,0.339,-10,10,0.361,-11,11
09/03/2009,0.339,-10,10,0.361,-11,11
10/03/2009,0.339,-10,10,0.361,-11,11
11/03/2009,0.339,-10,10,0.362,-11,11
12/03/2009,0.339,-10,10,0.361,-11,11
13/03/2009,0.339,-10,10,0.361,-11,11
14/03/2009,0.339,-10,10,0.361,-11,11
15/03/2009,0.339,-10,10,0.361,-11,11
16/03/2009,0.34,-10,10,0.361,-11,11
17/03/2009,0.34,-10,10,0.361,-11,11
18/03/2009,0.34,-10,10,0.361,-11,11
19/03/2009,0.34,-10,10,0.361,-11,11
20/03/2009,0.34,-10,10,0.36,-11,11
21/03/2009,0.34,-10,10,0.36,-11,11
22/03/2009,0.34,-10,10,0.36,-11,11
23/03/2009,0.34,-10,10,0.359,-11,11
24/03/2009,0.34,-10,10,0.358,-12,12
25/03/2009,0.34,-10,10,0.357,-12,12
26/03/2009,0.34,-11,11,0.358,-12,12
27/03/2009,0.34,-11,11,0.359,-12,12
28/03/2009,0.34,-11,11,0.359,-12,12
29/03/2009,0.34,-11,11,0.356,-12,12
30/03/2009,0.339,-11,11,0.354,-12,12
31/03/2009,0.339,-11,11,0.354,-12,12
01/04/2009,0.339,-11,11,0.354,-12,12
02/04/2009,0.34,-11,11,0.353,-13,13
03/04/2009,0.34,-11,11,0.353,-14,14
04/04/2009,0.34,-11,11,0.353,-14,14
05/04/2009,0.34,-11,11,0.352,-16,16
06/04/2009,0.34,-11,11,0.352,-18,18
07/04/2009,0.34,-11,11,0.351,-21,21
08/04/2009,0.34,-11,11,0.351,-25,25
09/04/2009,0.34,-11,11,0.35,-30,30
10/04/2009,0.34,-11,11,0.35,-34,34
11/04/2009,0.34,-11,11,0.349,-37,37
12/04/2009,0.34,-11,11,0.349,-42,42
13/04/2009,0.34,-11,11,0.348,-47,47
14/04/2009,0.34,-11,11,0.348,-51,51
15/04/2009,0.34,-12,12,0.348,-56,56
16/04/2009,0.34,-12,12,0.347,-61,61
17/04/2009,0.34,-12,12,0.346,-66,66
18/04/2009,0.34,-12,12,0.345,-72,72
19/04/2009,0.34,-12,12,0.344,-79,79
20/04/2009,0.34,-12,12,0.343,-86,86
21/04/2009,0.34,-12,12,0.342,-94,94
22/04/2009,0.34,-12,12,0.34,-104,104
23/04/2009,0.34,-12,12,0.338,-113,113
24/04/2009,0.34,-12,12,0.335,-124,124
25/04/2009,0.34,-12,12,0.331,-138,138
26/04/2009,0.34,-13,13,0.327,-151,151
27/04/2009,0.34,-13,13,0.324,-167,167
28/04/2009,0.34,-15,15,0.323,-177,177
29/04/2009,0.34,-17,17,0.322,-182,182
30/04/2009,0.34,-21,21,0.323,-184,184
01/05/2009,0.34,-24,24,0.324,-184,184
02/05/2009,0.34,-27,27,0.323,-187,187
03/05/2009,0.339,-28,28,0.321,-195,195
04/05/2009,0.339,-30,30,0.319,-204,204
05/05/2009,0.339,-32,32,0.319,-212,212
06/05/2009,0.339,-33,33,0.318,-217,217
07/05/2009,0.338,-35,35,0.316,-224,224
08/05/2009,0.338,-38,38,0.312,-239,239
09/05/2009,0.337,-46,46,0.309,-255,255
10/05/2009,0.336,-49,49,0.306,-274,274
11/05/2009,0.336,-52,52,0.304,-288,288
12/05/2009,0.335,-55,55,0.302,-303,303
13/05/2009,0.334,-59,59,0.299,-320,320
14/05/2009,0.333,-63,63,0.296,-337,337
15/05/2009,0.332,-67,67,0.294,-354,354
16/05/2009,0.332,-72,72,0.295,-369,369
17/05/2009,0.331,-77,77,0.296,-373,373
18/05/2009,0.329,-82,82,0.296,-372,372
19/05/2009,0.327,-87,87,0.296,-371,371
20/05/2009,0.325,-91,91,0.296,-373,373
21/05/2009,0.323,-96,96,0.295,-377,377
22/05/2009,0.321,-102,102,0.293,-381,381
23/05/2009,0.319,-109,109,0.291,-390,390
24/05/2009,0.316,-117,117,0.288,-402,402
25/05/2009,0.312,-128,128,0.285,-411,411
26/05/2009,0.307,-140,140,0.283,-418,418
27/05/2009,0.301,-153,153,0.281,-430,430
28/05/2009,0.295,-168,168,0.279,-443,443
29/05/2009,0.289,-183,183,0.278,-445,445
30/05/2009,0.283,-200,200,0.275,-446,446
31/05/2009,0.278,-216,216,0.274,-450,450
01/06/2009,0.272,-233,233,0.272,-458,458
02/06/2009,0.267,-248,248,0.27,-462,462
03/06/2009,0.263,-262,262,0.269,-466,466
04/06/2009,0.258,-275,275,0.267,-473,473
05/06/2009,0.255,-285,285,0.266,-483,483
06/06/2009,0.253,-293,293,0.265,-491,491
07/06/2009,0.251,-298,298,0.265,-493,493
08/06/2009,0.25,-301,301,0.265,-493,493
09/06/2009,0.249,-303,303,0.266,-491,491
10/06/2009,0.249,-302,302,0.266,-490,490
11/06/2009,0.25,-299,299,0.268,-486,486
12/06/2009,0.251,-297,297,0.27,-504,504
13/06/2009,0.251,-294,294,0.272,-535,535
14/06/2009,0.252,-291,291,0.273,-528,528
15/06/2009,0.253,-287,287,0.274,-521,521
16/06/2009,0.253,-283,283,0.275,-515,515
17/06/2009,0.253,-278,278,0.275,-513,513
18/06/2009,0.254,-275,275,0.276,-514,514
19/06/2009,0.255,-274,274,0.275,-514,514
20/06/2009,0.255,-271,271,0.276,-511,511
21/06/2009,0.256,-268,268,0.277,-507,507
22/06/2009,0.256,-263,263,0.278,-494,494
23/06/2009,0.258,-201,201,0.291,-378,378
24/06/2009,0.26,-152,152,0.296,-10,10
25/06/2009,0.3,-34,34,0.364,-10,10
26/06/2009,0.389,-11,11,0.395,-10,10
27/06/2009,0.386,-11,11,0.401,-10,10
28/06/2009,0.365,-11,11,0.402,-10,10
29/06/2009,0.344,-11,11,0.403,-10,10
30/06/2009,0.344,-11,11,0.404,-10,10
01/07/2009,0.346,-11,11,0.404,-10,10
02/07/2009,0.346,-11,11,0.405,-10,10
03/07/2009,0.347,-10,10,0.405,-10,10
04/07/2009,0.348,-10,10,0.405,-10,10
05/07/2009,0.347,-10,10,0.405,-10,10
06/07/2009,0.347,-10,10,0.405,-10,10
07/07/2009,0.347,-10,10,0.405,-10,10
08/07/2009,0.348,-10,10,0.405,-10,10
09/07/2009,0.349,-10,10,0.404,-10,10
10/07/2009,0.35,-10,10,0.404,-10,10
11/07/2009,0.35,-10,10,0.404,-10,10
12/07/2009,0.351,-10,10,0.404,-10,10
13/07/2009,0.35,-10,10,0.404,-10,10
14/07/2009,0.35,-10,10,0.404,-10,10
15/07/2009,0.35,-10,10,0.404,-10,10
16/07/2009,0.349,-10,10,0.404,-9,9
17/07/2009,0.352,-10,10,0.404,-9,9
18/07/2009,0.353,-10,10,0.404,-9,9
19/07/2009,0.353,-10,10,0.404,-9,9
20/07/2009,0.352,-10,10,0.404,-9,9
21/07/2009,0.352,-10,10,0.404,-9,9
22/07/2009,0.353,-10,10,0.403,-9,9
23/07/2009,0.352,-10,10,0.402,-9,9
24/07/2009,0.351,-10,10,0.401,-9,9
25/07/2009,0.35,-10,10,0.4,-9,9
26/07/2009,0.35,-10,10,0.398,-9,9
27/07/2009,0.35,-10,10,0.396,-9,9
28/07/2009,0.351,-10,10,0.394,-9,9
29/07/2009,0.351,-10,10,0.374,-9,9
30/07/2009,0.351,-10,10,0.369,-9,9
31/07/2009,0.351,-10,10,0.366,-10,10
01/08/2009,0.351,-10,10,0.363,-10,10
02/08/2009,0.351,-10,10,0.361,-10,10
03/08/2009,0.351,-10,10,0.359,-11,11
04/08/2009,0.351,-10,10,0.357,-11,11
05/08/2009,0.351,-10,10,0.356,-11,11
06/08/2009,0.35,-10,10,0.355,-12,12
07/08/2009,0.35,-10,10,0.352,-12,12
08/08/2009,0.35,-10,10,0.346,-12,12
09/08/2009,0.35,-10,10,0.34,-13,13
10/08/2009,0.35,-10,10,0.334,-14,14
11/08/2009,0.349,-10,10,0.33,-15,15
12/08/2009,0.348,-10,10,0.323,-17,17
13/08/2009,0.347,-10,10,0.315,-20,20
14/08/2009,0.347,-11,11,0.311,-24,24
15/08/2009,0.347,-11,11,0.308,-30,30
16/08/2009,0.347,-11,11,0.304,-35,35
17/08/2009,0.346,-11,11,0.3,-40,40
18/08/2009,0.346,-11,11,0.3,-47,47
19/08/2009,0.346,-12,12,0.298,-52,52
20/08/2009,0.346,-12,12,0.296,-56,56
21/08/2009,0.345,-12,12,0.293,-62,62
22/08/2009,0.344,-12,12,0.291,-69,69
23/08/2009,0.344,-13,13,0.289,-75,75
24/08/2009,0.344,-13,13,0.288,-83,83
25/08/2009,0.343,-13,13,0.287,-91,91
26/08/2009,0.343,-14,14,0.286,-100,100
27/08/2009,0.343,-15,15,0.285,-109,109
28/08/2009,0.342,-16,16,0.284,-118,118
29/08/2009,0.341,-18,18,0.283,-129,129
30/08/2009,0.34,-21,21,0.282,-142,142
31/08/2009,0.342,-24,24,0.282,-155,155
01/09/2009,0.351,-25,25,0.284,-163,163
02/09/2009,0.35,-27,27,0.283,-169,169
03/09/2009,0.349,-28,28,0.282,-171,171
04/09/2009,0.349,-29,29,0.282,-174,174
05/09/2009,0.348,-31,31,0.281,-177,177
06/09/2009,0.348,-32,32,0.281,-179,179
07/09/2009,0.347,-33,33,0.281,-178,178
08/09/2009,0.347,-34,34,0.281,-176,176
09/09/2009,0.347,-35,35,0.281,-177,177
10/09/2009,0.345,-36,36,0.28,-181,181
11/09/2009,0.345,-37,37,0.28,-188,188
12/09/2009,0.343,-38,38,0.279,-194,194
13/09/2009,0.341,-39,39,0.279,-202,202
14/09/2009,0.339,-40,40,0.278,-211,211
15/09/2009,0.337,-41,41,0.278,-220,220
16/09/2009,0.336,-43,43,0.277,-229,229
17/09/2009,0.334,-44,44,0.276,-239,239
18/09/2009,0.332,-45,45,0.275,-249,249
19/09/2009,0.331,-46,46,0.274,-259,259
20/09/2009,0.33,-48,48,0.274,-266,266
21/09/2009,0.328,-49,49,0.274,-274,274
22/09/2009,0.327,-51,51,0.274,-282,282
23/09/2009,0.326,-53,53,0.273,-288,288
24/09/2009,0.325,-54,54,0.272,-297,297
25/09/2009,0.324,-56,56,0.271,-306,306
26/09/2009,0.322,-58,58,0.271,-315,315
27/09/2009,0.321,-60,60,0.27,-322,322
28/09/2009,0.319,-62,62,0.27,-328,328
29/09/2009,0.318,-64,64,0.27,-332,332
30/09/2009,0.317,-66,66,0.271,-337,337
01/10/2009,0.316,-68,68,0.271,-343,343
02/10/2009,0.315,-71,71,0.27,-349,349
03/10/2009,0.313,-72,72,0.269,-354,354
04/10/2009,0.311,-74,74,0.268,-359,359
05/10/2009,0.308,-77,77,0.267,-365,365
06/10/2009,0.306,-78,78,0.267,-370,370
07/10/2009,0.304,-81,81,0.267,-374,374
08/10/2009,0.302,-83,83,0.267,-378,378
09/10/2009,0.3,-84,84,0.266,-380,380
10/10/2009,0.298,-86,86,0.266,-382,382
11/10/2009,0.295,-88,88,0.266,-380,380
12/10/2009,0.294,-89,89,0.266,-380,380
13/10/2009,0.293,-91,91,0.265,-382,382
14/10/2009,0.292,-93,93,0.266,-382,382
15/10/2009,0.291,-95,95,0.266,-380,380
16/10/2009,0.29,-96,96,0.267,-377,377
17/10/2009,0.289,-97,97,0.266,-378,378
18/10/2009,0.288,-99,99,0.265,-384,384
19/10/2009,0.286,-101,101,0.265,-387,387
20/10/2009,0.284,-102,102,0.265,-388,388
21/10/2009,0.283,-104,104,0.265,-389,389
22/10/2009,0.282,-105,105,0.265,-387,387
23/10/2009,0.281,-105,105,0.266,-384,384
24/10/2009,0.281,-105,105,0.266,-382,382
25/10/2009,0.281,-105,105,0.267,-380,380
26/10/2009,0.281,-105,105,0.267,-379,379
27/10/2009,0.28,-105,105,0.267,-379,379
28/10/2009,0.28,-105,105,0.267,-376,376
29/10/2009,0.28,-105,105,0.267,-376,376
30/10/2009,0.28,-105,105,0.267,-374,374
31/10/2009,0.28,-105,105,0.267,-373,373
01/11/2009,0.284,-103,103,0.268,-345,345
02/11/2009,0.287,-94,94,0.268,-313,313
03/11/2009,0.286,-91,91,0.269,-304,304
04/11/2009,0.286,-91,91,0.269,-294,294
05/11/2009,0.285,-91,91,0.269,-285,285
06/11/2009,0.284,-91,91,0.268,-279,279
07/11/2009,0.284,-90,90,0.268,-276,276
08/11/2009,0.345,-32,32,0.269,-124,124
09/11/2009,0.308,-12,12,0.269,-49,49
10/11/2009,0.302,-18,18,0.27,-77,77
11/11/2009,0.3,-30,30,0.27,-80,80
12/11/2009,0.299,-37,37,0.27,-78,78
13/11/2009,0.303,-37,37,0.271,-73,73
14/11/2009,0.382,-12,12,0.271,-11,11
15/11/2009,0.381,-14,14,0.271,-11,11
16/11/2009,0.382,-17,17,0.271,-11,11
17/11/2009,0.385,-20,20,0.271,-11,11
18/11/2009,0.385,-13,13,0.371,-11,11
19/11/2009,0.385,-11,11,0.4,-11,11
20/11/2009,0.385,-11,11,0.402,-11,11
21/11/2009,0.385,-11,11,0.403,-11,11
22/11/2009,0.385,-11,11,0.403,-11,11
23/11/2009,0.384,-11,11,0.403,-11,11
24/11/2009,0.384,-11,11,0.404,-10,10
25/11/2009,0.383,-11,11,0.404,-10,10
26/11/2009,0.383,-11,11,0.405,-10,10
27/11/2009,0.382,-11,11,0.405,-10,10
28/11/2009,0.381,-11,11,0.405,-10,10
29/11/2009,0.38,-10,10,0.404,-10,10
30/11/2009,0.38,-10,10,0.405,-10,10
01/12/2009,0.38,-10,10,0.406,-10,10
02/12/2009,0.379,-10,10,0.406,-10,10
03/12/2009,0.379,-10,10,0.407,-10,10
04/12/2009,0.378,-10,10,0.407,-10,10
05/12/2009,0.378,-10,10,0.407,-10,10
06/12/2009,0.378,-10,10,0.407,-10,10
07/12/2009,0.378,-10,10,0.407,-10,10
08/12/2009,0.378,-10,10,0.407,-10,10
09/12/2009,0.378,-10,10,0.408,-10,10
10/12/2009,0.378,-10,10,0.408,-10,10
11/12/2009,0.378,-10,10,0.408,-10,10
12/12/2009,0.378,-10,10,0.408,-10,10
13/12/2009,0.378,-10,10,0.408,-10,10
14/12/2009,0.378,-10,10,0.408,-10,10
15/12/2009,0.378,-10,10,0.408,-10,10
16/12/2009,0.377,-10,10,0.408,-10,10
17/12/2009,0.377,-10,10,0.408,-10,10
18/12/2009,0.377,-10,10,0.408,-10,10
19/12/2009,0.376,-10,10,0.408,-10,10
20/12/2009,0.376,-10,10,0.408,-10,10
21/12/2009,0.375,-10,10,0.408,-10,10
22/12/2009,0.375,-10,10,0.408,-10,10
23/12/2009,0.374,-10,10,0.408,-10,10
24/12/2009,0.374,-10,10,0.408,-10,10
25/12/2009,0.375,-10,10,0.408,-10,10
26/12/2009,0.374,-10,10,0.408,-10,10
27/12/2009,0.374,-10,10,0.408,-10,10
28/12/2009,0.375,-10,10,0.408,-10,10
29/12/2009,0.375,-10,10,0.408,-10,10
30/12/2009,0.375,-10,10,0.408,-10,10
31/12/2009,0.375,-10,10,0.408,-10,10
01/01/2010,0.375,-10,10,0.408,-10,10
02/01/2010,0.375,-10,10,0.408,-10,10
03/01/2010,0.375,-10,10,0.408,-10,10
04/01/2010,0.375,-10,10,0.408,-10,10
05/01/2010,0.375,-10,10,0.408,-10,10
06/01/2010,0.375,-10,10,0.408,-10,10
07/01/2010,0.375,-10,10,0.408,-10,10
08/01/2010,0.375,-10,10,0.408,-10,10
09/01/2010,0.375,-10,10,0.408,-10,10
10/01/2010,0.375,-10,10,0.408,-10,10
11/01/2010,0.375,-10,10,0.408,-10,10
12/01/2010,0.375,-10,10,0.408,-10,10
13/01/2010,0.374,-10,10,0.408,-10,10
14/01/2010,0.374,-10,10,0.408,-10,10
15/01/2010,0.374,-10,10,0.408,-10,10
16/01/2010,0.374,-10,10,0.408,-10,10
17/01/2010,0.373,-10,10,0.408,-10,10
18/01/2010,0.374,-10,10,0.408,-10,10
19/01/2010,0.373,-10,10,0.408,-10,10
20/01/2010,0.373,-10,10,0.408,-10,10
21/01/2010,0.372,-10,10,0.408,-10,10
22/01/2010,0.373,-10,10,0.408,-10,10
23/01/2010,0.372,-10,10,0.408,-10,10
24/01/2010,0.372,-10,10,0.407,-10,10
25/01/2010,0.373,-10,10,0.407,-10,10
26/01/2010,0.372,-10,10,0.407,-10,10
27/01/2010,0.372,-10,10,0.408,-10,10
28/01/2010,0.371,-10,10,0.407,-10,10
29/01/2010,0.369,-10,10,0.406,-10,10
30/01/2010,0.369,-10,10,0.406,-10,10
31/01/2010,0.369,-10,10,0.406,-10,10
01/02/2010,0.368,-10,10,0.406,-10,10
02/02/2010,0.368,-10,10,0.405,-10,10
03/02/2010,0.368,-10,10,0.405,-10,10
04/02/2010,0.369,-10,10,0.405,-10,10
05/02/2010,0.369,-10,10,0.405,-10,10
06/02/2010,0.368,-10,10,0.404,-10,10
07/02/2010,0.368,-10,10,0.403,-10,10
08/02/2010,0.368,-10,10,0.403,-10,10
09/02/2010,0.368,-10,10,0.404,-10,10
10/02/2010,0.368,-10,10,0.405,-10,10
11/02/2010,0.368,-10,10,0.404,-10,10
12/02/2010,0.368,-10,10,0.404,-10,10
13/02/2010,0.367,-10,10,0.405,-10,10
14/02/2010,0.367,-10,10,0.405,-10,10
15/02/2010,0.366,-10,10,0.405,-10,10
16/02/2010,0.365,-10,10,0.403,-10,10
17/02/2010,0.365,-10,10,0.403,-10,10
18/02/2010,0.365,-10,10,0.403,-10,10
19/02/2010,0.365,-10,10,0.403,-10,10
20/02/2010,0.365,-10,10,0.404,-10,10
21/02/2010,0.364,-10,10,0.403,-10,10
22/02/2010,0.365,-10,10,0.404,-10,10
23/02/2010,0.364,-10,10,0.403,-10,10
24/02/2010,0.364,-10,10,0.402,-10,10
25/02/2010,0.364,-10,10,0.403,-10,10
26/02/2010,0.364,-10,10,0.401,-10,10
27/02/2010,0.364,-10,10,0.401,-10,10
28/02/2010,0.364,-10,10,0.4,-10,10
01/03/2010,0.365,-10,10,0.402,-10,10
02/03/2010,0.366,-10,10,0.403,-10,10
03/03/2010,0.367,-10,10,0.405,-10,10
04/03/2010,0.369,-10,10,0.41,-10,10
05/03/2010,0.369,-10,10,0.41,-10,10
06/03/2010,0.369,-10,10,0.41,-10,10
07/03/2010,0.369,-10,10,0.41,-10,10
08/03/2010,0.369,-10,10,0.41,-10,10
09/03/2010,0.369,-10,10,0.41,-10,10
10/03/2010,0.369,-10,10,0.41,-10,10
11/03/2010,0.369,-10,10,0.41,-10,10
12/03/2010,0.368,-10,10,0.409,-10,10
13/03/2010,0.368,-10,10,0.409,-10,10
14/03/2010,0.368,-10,10,0.405,-10,10
15/03/2010,0.368,-10,10,0.404,-10,10
16/03/2010,0.368,-10,10,0.403,-10,10
17/03/2010,0.368,-10,10,0.403,-10,10
18/03/2010,0.367,-10,10,0.403,-10,10
19/03/2010,0.367,-10,10,0.403,-10,10
20/03/2010,0.367,-10,10,0.404,-10,10
21/03/2010,0.367,-10,10,0.409,-10,10
22/03/2010,0.366,-10,10,0.409,-10,10
23/03/2010,0.366,-10,10,0.409,-10,10
24/03/2010,0.366,-10,10,0.409,-10,10
25/03/2010,0.366,-10,10,0.409,-10,10
26/03/2010,0.366,-10,10,0.409,-10,10
27/03/2010,0.366,-10,10,0.409,-10,10
28/03/2010,0.366,-10,10,0.409,-10,10
29/03/2010,0.366,-10,10,0.408,-10,10
30/03/2010,0.366,-10,10,0.408,-10,10
31/03/2010,0.365,-10,10,0.408,-10,10
01/04/2010,0.366,-10,10,0.408,-10,10
02/04/2010,0.366,-10,10,0.408,-10,10
03/04/2010,0.365,-10,10,0.408,-10,10
04/04/2010,0.366,-10,10,0.408,-10,10
05/04/2010,0.366,-10,10,0.408,-10,10
06/04/2010,0.366,-10,10,0.409,-10,10
07/04/2010,0.366,-10,10,0.409,-10,10
08/04/2010,0.366,-10,10,0.409,-10,10
09/04/2010,0.366,-10,10,0.408,-10,10
10/04/2010,0.366,-10,10,0.409,-10,10
11/04/2010,0.366,-10,10,0.406,-10,10
12/04/2010,0.366,-10,10,0.404,-9,9
13/04/2010,0.366,-10,10,0.404,-9,9
14/04/2010,0.365,-10,10,0.403,-10,10
15/04/2010,0.365,-10,10,0.403,-10,10
16/04/2010,0.365,-10,10,0.403,-10,10
17/04/2010,0.365,-10,10,0.402,-9,9
18/04/2010,0.364,-10,10,0.402,-9,9
19/04/2010,0.364,-10,10,0.402,-9,9
20/04/2010,0.354,-10,10,0.402,-9,9
21/04/2010,0.353,-10,10,0.402,-9,9
22/04/2010,0.352,-10,10,0.401,-9,9
23/04/2010,0.352,-10,10,0.398,-9,9
24/04/2010,0.352,-10,10,0.377,-9,9
25/04/2010,0.354,-10,10,0.353,-9,9
26/04/2010,0.354,-10,10,0.351,-10,10
27/04/2010,0.354,-10,10,0.35,-10,10
28/04/2010,0.353,-10,10,0.348,-10,10
29/04/2010,0.352,-10,10,0.347,-10,10
30/04/2010,0.352,-10,10,0.345,-10,10
01/05/2010,0.352,-10,10,0.344,-10,10
02/05/2010,0.352,-10,10,0.342,-10,10
03/05/2010,0.352,-10,10,0.34,-11,11
04/05/2010,0.352,-10,10,0.338,-11,11
05/05/2010,0.352,-10,10,0.337,-11,11
06/05/2010,0.352,-10,10,0.336,-11,11
07/05/2010,0.351,-10,10,0.334,-12,12
08/05/2010,0.352,-10,10,0.333,-12,12
09/05/2010,0.352,-10,10,0.332,-13,13
10/05/2010,0.351,-10,10,0.33,-13,13
11/05/2010,0.352,-10,10,0.328,-14,14
12/05/2010,0.351,-10,10,0.325,-15,15
13/05/2010,0.351,-10,10,0.322,-17,17
14/05/2010,0.352,-10,10,0.32,-18,18
15/05/2010,0.354,-10,10,0.317,-20,20
16/05/2010,0.352,-10,10,0.314,-24,24
17/05/2010,0.353,-10,10,0.311,-28,28
18/05/2010,0.353,-10,10,0.307,-32,32
19/05/2010,0.353,-10,10,0.304,-35,35
20/05/2010,0.352,-10,10,0.3,-40,40
21/05/2010,0.352,-11,11,0.297,-45,45
22/05/2010,0.352,-11,11,0.293,-53,53
23/05/2010,0.351,-11,11,0.29,-63,63
24/05/2010,0.351,-11,11,0.286,-76,76
25/05/2010,0.35,-11,11,0.283,-91,91
26/05/2010,0.349,-11,11,0.28,-107,107
27/05/2010,0.347,-12,12,0.277,-122,122
28/05/2010,0.346,-12,12,0.275,-135,135
29/05/2010,0.345,-12,12,0.273,-145,145
30/05/2010,0.344,-13,13,0.272,-154,154
31/05/2010,0.343,-14,14,0.271,-164,164
01/06/2010,0.342,-15,15,0.27,-173,173
02/06/2010,0.341,-16,16,0.269,-184,184
03/06/2010,0.34,-18,18,0.269,-201,201
04/06/2010,0.34,-22,22,0.268,-219,219
05/06/2010,0.339,-25,25,0.266,-239,239
06/06/2010,0.339,-28,28,0.265,-258,258
07/06/2010,0.338,-31,31,0.265,-272,272
08/06/2010,0.337,-34,34,0.264,-279,279
09/06/2010,0.335,-36,36,0.264,-283,283
10/06/2010,0.334,-39,39,0.264,-283,283
11/06/2010,0.333,-40,40,0.264,-283,283
12/06/2010,0.331,-42,42,0.264,-283,283
13/06/2010,0.33,-44,44,0.264,-282,282
14/06/2010,0.328,-46,46,0.264,-280,280
15/06/2010,0.328,-47,47,0.264,-279,279
16/06/2010,0.327,-48,48,0.264,-276,276
17/06/2010,0.326,-49,49,0.265,-268,268
18/06/2010,0.325,-49,49,0.266,-259,259
19/06/2010,0.324,-50,50,0.267,-254,254
20/06/2010,0.324,-51,51,0.266,-256,256
21/06/2010,0.323,-52,52,0.266,-253,253
22/06/2010,0.321,-53,53,0.267,-249,249
23/06/2010,0.321,-54,54,0.268,-247,247
24/06/2010,0.32,-55,55,0.268,-249,249
25/06/2010,0.32,-56,56,0.268,-250,250
26/06/2010,0.32,-57,57,0.268,-249,249
27/06/2010,0.319,-58,58,0.268,-247,247
28/06/2010,0.318,-60,60,0.268,-248,248
29/06/2010,0.318,-61,61,0.268,-248,248
30/06/2010,0.318,-60,60,0.269,-104,104
01/07/2010,0.333,-25,25,0.356,-10,10
02/07/2010,0.357,-11,11,0.378,-10,10
03/07/2010,0.362,-11,11,0.375,-10,10
04/07/2010,0.364,-11,11,0.35,-10,10
05/07/2010,0.364,-11,11,0.346,-10,10
06/07/2010,0.364,-11,11,0.361,-10,10
07/07/2010,0.365,-10,10,0.372,-10,10
08/07/2010,0.367,-10,10,0.378,-10,10
09/07/2010,0.367,-10,10,0.381,-10,10
10/07/2010,0.367,-10,10,0.38,-10,10
11/07/2010,0.367,-10,10,0.375,-10,10
12/07/2010,0.367,-10,10,0.379,-10,10
13/07/2010,0.366,-10,10,0.38,-10,10
14/07/2010,0.365,-10,10,0.382,-10,10
15/07/2010,0.365,-10,10,0.381,-10,10
16/07/2010,0.366,-10,10,0.381,-10,10
17/07/2010,0.366,-10,10,0.381,-10,10
18/07/2010,0.366,-10,10,0.377,-10,10
19/07/2010,0.367,-10,10,0.38,-10,10
20/07/2010,0.367,-10,10,0.382,-10,10
21/07/2010,0.367,-10,10,0.381,-10,10
22/07/2010,0.367,-10,10,0.381,-10,10
23/07/2010,0.367,-10,10,0.381,-10,10
24/07/2010,0.367,-10,10,0.38,-10,10
25/07/2010,0.366,-10,10,0.377,-9,9
26/07/2010,0.366,-10,10,0.374,-9,9
27/07/2010,0.365,-10,10,0.371,-9,9
28/07/2010,0.365,-10,10,0.368,-9,9
29/07/2010,0.365,-10,10,0.362,-9,9
30/07/2010,0.365,-10,10,0.361,-9,9
31/07/2010,0.364,-10,10,0.359,-9,9
01/08/2010,0.364,-10,10,0.359,-9,9
02/08/2010,0.364,-10,10,0.357,-9,9